Location: Bj�rn�ya
(74.5000°N, 19.0000°E)
Time: 08:20:30
(UTC+02:00)

Envisat - Pass Details

Date: 03 February 2022
Orbit: 764 x 765 km, 98.2° (Epoch: 20 May)

Event Time Altitude Azimuth Distance (km) Brightness Sun altitude
Rises 15:03:48 0° 166° (SSE) 3,232 6.7 -5.5°
Reaches altitude 10° 15:06:08 10° 170° (S) 2,309 6.0 -5.6°
Maximum altitude 15:11:11 60° 251° (WSW) 881 3.7 -5.8°
Drops below altitude 10° 15:16:14 10° 332° (NNW) 2,319 5.4 -6.1°
Sets 15:18:36 0° 336° (NNW) 3,248 6.1 -6.2°
